Fort Knox, KY

10:31 PM EDT on May 26, 2017 (GMT -0400)
Godman Army Air Field

Weather History for KFTK - December, 2012

Change the Weather History Date:

Thursday, December 6, 2012

  Actual Average Record
Temperature  
Mean Temperature 41 °F -  
Max Temperature 50 °F 46 °F 73 °F (1998)
Min Temperature 32 °F 30 °F 10 °F (2002)
Degree Days  
Heating Degree Days 24    
Moisture  
Dew Point 40 °F    
Average Humidity 85    
Maximum Humidity 100    
Minimum Humidity 66    
Precipitation  
Precipitation 0.03 in - - ()
Sea Level Pressure  
Sea Level Pressure 30.07 in    
Wind  
Wind Speed 5 mph (East)    
Max Wind Speed 9 mph    
Max Gust Speed -    
Visibility 8 miles    
Events Rain    
Averages and records for this station are not official NWS values.
T = Trace of Precipitation, MM = Missing Value Source: NWS Daily Summary

Daily Weather History Graph

Daily Weather History Graph

Search for Another Location

Airport or City:

Trip Planner

Search our weather history database for the weather conditions in past years. The results will help you decide how hot, cold, wet, or windy it might be!

Date:

Astronomy

Dec. 06, 2012 Rise Set
Actual Time 7:45 AM EST 5:24 PM EST
Civil Twilight 7:16 AM EST 5:53 PM EST
Nautical Twilight 6:43 AM EST 6:26 PM EST
Astronomical Twilight 6:12 AM EST 6:58 PM EST
Moon 12:08 AM EST (12/6) 12:44 PM EST (12/6)
Length of Visible Light 10h 36m
Length of Day
9h 38m
Waning Gibbous, 49% of the Moon is Illuminated
Dec 6
Waning Gibbous
Dec 13
New
Dec 20
First Quarter
Dec 28
Full
Jan 4
Last Quarter

Hourly Weather History & Observations

Time (EST) Temp. Windchill Dew Point Humidity Pressure Visibility Wind Dir Wind Speed Gust Speed Precip Events Conditions
12:55 AM 37.6 °F 32.3 °F 32.0 °F 80% 30.22 in 10.0 mi ENE 6.9 mph - N/A   Clear
1:55 AM 36.7 °F 29.9 °F 31.8 °F 83% 30.19 in 10.0 mi ENE 9.2 mph - N/A   Clear
2:55 AM 35.8 °F 28.8 °F 31.5 °F 84% 30.19 in 10.0 mi ENE 9.2 mph - N/A   Clear
3:55 AM 34.9 °F 29.0 °F 30.9 °F 85% 30.17 in 10.0 mi ENE 6.9 mph - N/A   Clear
4:55 AM 33.4 °F 29.1 °F 30.0 °F 87% 30.17 in 10.0 mi NE 4.6 mph - N/A   Clear
5:55 AM 32.7 °F 27.3 °F 29.7 °F 88% 30.17 in 10.0 mi ENE 5.8 mph - N/A   Clear
6:55 AM 32.5 °F 26.2 °F 29.7 °F 89% 30.16 in 10.0 mi NE 6.9 mph - N/A   Clear
7:55 AM 32.5 °F 26.2 °F 29.7 °F 89% 30.16 in 10.0 mi ENE 6.9 mph - N/A   Clear
8:55 AM 34.3 °F 29.2 °F 30.7 °F 87% 30.15 in 10.0 mi ENE 5.8 mph - N/A   Overcast
9:55 AM 37.2 °F 31.9 °F 32.0 °F 81% 30.15 in 10.0 mi ENE 6.9 mph - N/A   Overcast
10:55 AM 41.7 °F 37.3 °F 34.3 °F 75% 30.14 in 10.0 mi East 6.9 mph - N/A   Mostly Cloudy
11:55 AM 44.2 °F 41.0 °F 35.1 °F 70% 30.11 in 10.0 mi ESE 5.8 mph - N/A   Overcast
12:55 PM 46.4 °F 44.3 °F 36.5 °F 68% 30.08 in 10.0 mi SE 4.6 mph - N/A   Overcast
1:39 PM 48.2 °F - 37.4 °F 66% 30.04 in 10.0 mi East 3.5 mph - N/A   Overcast
1:55 PM 48.9 °F - 38.1 °F 66% 30.05 in 10.0 mi East 4.6 mph - N/A   Overcast
2:30 PM 50.0 °F - 39.2 °F 66% 30.02 in 10.0 mi East 3.5 mph - N/A   Overcast
2:43 PM 50.0 °F - 39.2 °F 66% 30.02 in 4.0 mi East 3.5 mph - N/A Rain Light Rain Showers
2:45 PM 50.0 °F - 41.0 °F 71% 30.02 in 2.0 mi ESE 3.5 mph - N/A Rain Light Rain Showers
2:55 PM 48.4 °F - 41.9 °F 78% 30.04 in 4.0 mi East 4.6 mph - 0.00 in Rain Light Rain
2:57 PM 48.2 °F - 42.8 °F 82% 30.10 in 1.2 mi East 3.5 mph - N/A Rain Light Rain Showers
3:10 PM 46.4 °F 45.2 °F 42.8 °F 87% 30.02 in 1.5 mi ENE 3.5 mph - N/A   Light Drizzle
3:27 PM 46.4 °F - 42.8 °F 87% 30.02 in 5.0 mi ENE 2.3 mph - N/A   Overcast
3:55 PM 46.9 °F - 44.1 °F 90% 30.04 in 7.0 mi ENE 3.5 mph - 0.01 in   Overcast
4:46 PM 46.4 °F 43.5 °F 44.6 °F 93% 30.01 in 10.0 mi East 5.8 mph - N/A   Overcast
4:55 PM 46.8 °F - 44.8 °F 93% 30.03 in 10.0 mi Variable 3.5 mph - N/A   Overcast
5:55 PM 46.6 °F - 45.0 °F 94% 30.03 in 10.0 mi Calm Calm - N/A   Overcast
6:55 PM 46.9 °F - 45.5 °F 95% 30.02 in 10.0 mi East 4.6 mph - N/A   Overcast
7:55 PM 47.8 °F - 46.8 °F 96% 30.01 in 10.0 mi Calm Calm - N/A   Overcast
8:55 PM 48.4 °F - 47.3 °F 96% 30.01 in 10.0 mi Calm Calm - N/A   Overcast
9:55 PM 49.1 °F - 48.0 °F 96% 30.01 in 7.0 mi Calm Calm - 0.00 in Rain Light Rain
10:15 PM 48.2 °F - 48.2 °F 100% 29.98 in 10.0 mi SW 2.3 mph - N/A   Overcast
10:41 PM 50.0 °F - 48.2 °F 94% 29.98 in 5.0 mi South 3.5 mph - N/A   Light Drizzle
10:55 PM 49.3 °F - 48.6 °F 97% 30.00 in 4.0 mi SSW 3.5 mph - 0.00 in   Light Drizzle
11:50 PM 50.0 °F - 48.2 °F 94% 29.97 in 7.0 mi South 1.2 mph - N/A   Overcast
11:55 PM 49.8 °F - 49.1 °F 97% 29.99 in 7.0 mi South 2.3 mph - 0.02 in   Overcast